This is the latest recevied weather packets stored in our database for station/object KM4KBD. If no packets are shown the sender has not sent any weather packets the latest 10 day(s).
| Time | Temp. | Humidity | Pressure | Rain* | Wind** | Luminosity | Snow |
|---|---|---|---|---|---|---|---|
| 1777758337 | 12.22° C | 55% | 1022.4 hPa | 0 mm | - | 137 W/m² | - |
| 1777758035 | 12.22° C | 54% | 1022.5 hPa | 0 mm | - | 168 W/m² | - |
| 1777757731 | 12.22° C | 55% | 1022.5 hPa | 0 mm | - | 173 W/m² | - |
| 1777757429 | 12.78° C | 52% | 1022.4 hPa | 0 mm | - | 208 W/m² | - |
| 1777757128 | 12.22° C | 51% | 1022.4 hPa | 0 mm | - | 206 W/m² | - |
| 1777756825 | 12.22° C | 52% | 1022.4 hPa | 0 mm | - | 189 W/m² | - |
| 1777756521 | 12.22° C | 54% | 1022.4 hPa | 0 mm | - | 157 W/m² | - |
| 1777756218 | 11.67° C | 53% | 1022.6 hPa | 0 mm | - | 171 W/m² | - |
| 1777755915 | 11.67° C | 51% | 1022.5 hPa | 0 mm | - | 169 W/m² | - |
| 1777755612 | 12.22° C | 53% | 1022.4 hPa | 0 mm | - | 141 W/m² | - |
| 1777755309 | 12.22° C | 55% | 1022.7 hPa | 0 mm | - | 149 W/m² | - |
| 1777755006 | 12.78° C | 54% | 1022.5 hPa | 0 mm | - | 189 W/m² | - |
| 1777754702 | 12.78° C | 52% | 1022.6 hPa | 0 mm | - | 190 W/m² | - |
| 1777754400 | 12.22° C | 52% | 1022.6 hPa | 0 mm | - | 172 W/m² | - |
| 1777754097 | 12.22° C | 51% | 1022.7 hPa | 0 mm | - | 183 W/m² | - |
| 1777753794 | 12.22° C | 51% | 1022.9 hPa | 0 mm | - | 195 W/m² | - |
| 1777753490 | 12.78° C | 53% | 1022.7 hPa | 0 mm | - | 160 W/m² | - |
| 1777753189 | 12.22° C | 54% | 1022.8 hPa | 0 mm | - | 182 W/m² | - |
| 1777752884 | 12.22° C | 52% | 1022.8 hPa | 0 mm | - | 152 W/m² | - |
| 1777752581 | 12.22° C | 53% | 1022.7 hPa | 0 mm | - | 182 W/m² | - |
| 1777752277 | 11.67° C | 52% | 1022.7 hPa | 0 mm | - | 140 W/m² | - |
| 1777751975 | 11.67° C | 53% | 1022.6 hPa | 0 mm | - | 91 W/m² | - |
| 1777751672 | 12.22° C | 53% | 1022.9 hPa | 0 mm | - | 116 W/m² | - |
| 1777751368 | 12.78° C | 51% | 1022.8 hPa | 0 mm | - | 125 W/m² | - |
| 1777751065 | 12.78° C | 48% | 1023 hPa | 0 mm | - | 122 W/m² | - |
* Rain latest hour (hover to see other rain measurements)
** Current wind speed in m/s (hover to see current wind gust speed)